Wind_Speed
7 7 6 5 5 7 8 8 7 7 7 7 9 10 9 10 10 10 10 11 15 15 14 14 13 12 13 11 10 10 10 10 9 10 12 13 12 13 14 15 15 14 15 15 14 13 14 15 17 17 16 17 18 18 19 19 19 19 18 17 18 18 16 13 6 3 8 12 12 12 12 12 13 12 11 9 8 7 6 4 3 4 4 4 5
8 7 7 7 6 8 10 10 8 7 8 9 9 9 11 12 11 10 11 13 15 15 15 16 15 14 13 11 11 11 10 9 9 9 12 14 13 13 14 14 14 13 14 14 14 13 13 14 15 15 15 16 17 18 19 20 20 20 19 17 17 17 16 15 11 7 8 11 12 12 11 11 12 11 11 10 8 5 3 1 1 2 3 4 5
9 8 9 9 8 8 10 9 8 8 10 10 10 10 12 12 12 13 14 14 13 14 16 17 15 13 12 11 11 11 10 7 7 8 10 12 12 12 13 13 12 12 12 12 12 12 13 14 14 13 14 15 17 18 18 19 19 18 17 16 15 14 13 13 12 9 8 10 12 12 12 11 10 10 10 9 8 6 4 2 2 2 3 5 5
10 10 10 10 9 9 9 9 9 10 10 11 12 11 12 13 14 14 14 14 14 15 15 15 14 12 12 12 11 11 9 6 5 7 9 10 9 9 11 11 10 10 12 12 12 12 14 14 13 14 15 17 18 18 18 18 17 15 14 13 12 11 10 9 8 7 6 7 9 11 11 10 9 10 10 8 7 7 5 4 4 5 5 5 6
11 10 9 9 8 9 10 9 9 11 10 11 12 12 13 14 14 13 12 13 15 16 15 14 13 13 13 13 12 12 9 7 7 9 9 8 7 6 6 8 10 10 11 11 11 12 13 12 13 15 17 18 18 18 18 17 17 15 14 12 10 9 8 7 7 7 6 5 6 8 9 9 10 11 11 8 7 7 6 6 5 5 4 5 5
9 9 9 9 8 9 10 9 9 10 10 12 12 12 13 15 14 13 12 14 16 17 16 14 14 14 14 13 14 13 10 9 9 10 9 7 6 6 5 7 9 9 9 9 10 11 12 11 12 15 17 16 16 15 15 16 16 15 15 13 11 10 9 8 8 8 7 5 6 8 9 10 11 12 11 8 7 8 8 7 8 8 6 5 5
9 8 8 8 8 10 10 9 10 10 12 14 13 11 12 13 13 12 13 15 17 16 16 15 14 13 13 15 18 16 12 10 10 10 8 7 8 7 6 7 8 8 8 9 11 11 11 11 12 13 14 13 13 14 14 14 14 14 15 14 12 12 10 9 8 8 8 8 8 9 11 12 12 12 11 8 6 9 12 11 10 11 9 8 7
8 8 8 8 9 10 10 10 10 10 12 12 11 11 12 12 11 11 13 16 16 15 15 14 13 12 13 16 19 19 15 11 10 8 6 7 10 7 7 7 8 8 8 9 10 10 11 12 12 11 11 12 12 14 14 14 14 13 13 12 10 11 10 8 8 8 7 8 9 10 10 11 11 12 13 12 10 11 12 12 11 11 11 10 7
7 8 8 9 9 8 9 10 10 10 11 11 11 12 12 12 11 11 14 16 15 14 13 11 11 12 13 14 16 18 17 13 9 7 5 6 10 7 7 7 7 7 7 8 9 9 9 10 9 9 10 12 14 14 14 13 12 10 10 10 9 9 8 7 7 7 7 8 9 10 9 10 11 12 13 13 12 12 11 11 10 10 12 10 6
7 8 8 8 9 8 9 9 10 11 11 11 11 12 13 13 13 13 15 16 15 13 12 11 11 11 11 12 13 16 17 14 8 5 4 5 9 7 6 7 6 6 6 8 9 8 7 7 8 9 11 14 15 14 13 12 11 8 8 9 8 7 7 8 7 6 6 7 8 8 8 9 10 11 12 13 13 12 10 11 12 11 11 10 6
6 7 7 7 8 8 8 9 10 11 11 10 11 12 13 14 14 14 16 16 15 14 13 12 10 9 9 9 11 14 15 13 8 4 1 4 10 7 5 7 5 5 6 8 8 6 6 7 8 10 13 15 15 14 12 11 11 10 10 8 7 7 7 8 7 6 5 6 7 6 7 8 9 9 10 13 14 13 11 11 11 11 11 8 5
6 6 6 6 6 6 7 9 10 10 10 11 11 13 13 14 13 14 15 16 16 14 12 11 10 9 8 8 10 12 12 12 9 4 1 3 8 7 3 6 5 4 5 7 7 5 5 6 7 10 13 14 13 13 11 9 9 11 11 9 9 10 8 7 7 6 5 6 7 7 7 8 9 9 9 11 12 12 12 12 11 10 10 8 7
7 6 5 5 5 5 6 9 10 10 10 11 12 13 13 13 13 12 13 13 14 13 12 10 10 9 8 7 8 10 10 11 12 9 3 3 6 6 4 5 4 3 4 6 6 5 5 6 7 10 12 12 12 13 11 9 9 10 9 8 10 11 9 7 6 6 6 7 8 10 9 9 10 11 9 9 11 12 13 13 11 10 10 10 10
7 5 4 3 3 3 4 7 10 10 11 12 12 12 12 12 12 11 9 10 13 13 11 10 9 9 7 6 6 7 8 9 13 13 8 3 3 6 7 6 4 3 4 5 5 5 6 7 8 11 11 11 12 13 11 10 10 10 9 8 9 10 9 7 6 6 7 7 9 11 11 10 11 11 9 9 10 10 11 11 10 9 10 11 11
6 4 4 3 3 3 4 7 9 10 10 11 11 11 11 12 12 9 7 10 14 12 9 9 10 9 7 5 5 5 6 8 10 14 12 4 1 4 7 7 4 4 4 4 5 5 6 8 9 11 11 10 11 12 12 11 11 12 12 11 11 12 11 9 9 8 8 7 8 9 9 8 9 9 8 8 8 8 8 8 8 8 9 10 8
4 2 2 3 3 5 6 7 9 10 10 10 10 10 11 12 12 10 9 11 13 11 8 9 9 8 7 5 4 4 4 6 7 11 12 6 1 2 5 7 7 5 4 3 4 5 7 9 10 10 10 10 10 11 13 12 12 13 14 14 14 14 12 11 10 9 7 6 6 7 7 7 6 6 6 6 6 6 5 5 5 6 7 8 6
2 2 2 2 4 6 7 8 9 10 10 9 9 9 10 11 11 10 8 10 12 11 9 9 8 8 8 6 4 2 2 3 5 9 11 7 2 1 3 6 8 7 5 4 4 6 6 8 10 10 10 10 10 11 12 12 12 14 15 15 16 16 13 12 12 10 6 4 5 6 6 5 4 4 5 6 5 4 4 3 4 5 5 4 3
3 4 4 4 5 7 8 9 9 9 9 8 8 9 9 10 10 8 7 10 13 13 10 8 7 6 6 5 3 0 1 0 3 7 9 7 4 3 4 5 8 8 5 5 5 5 5 6 9 10 10 10 10 10 11 11 12 13 15 16 16 16 15 14 15 13 8 5 5 6 5 5 5 4 4 5 4 1 2 2 3 3 2 1 2
5 5 6 6 7 8 8 9 9 9 9 8 8 8 9 9 9 8 8 12 14 13 9 7 6 5 4 3 3 3 4 2 2 5 8 8 7 6 5 6 8 9 6 7 4 3 3 5 7 9 9 9 10 10 10 9 10 12 13 15 16 16 15 14 15 14 10 7 7 7 7 6 5 4 5 5 5 3 2 3 3 2 2 2 1
7 6 6 5 6 7 8 9 9 9 9 8 8 8 9 9 10 11 11 13 13 11 8 5 4 4 4 4 4 6 7 4 2 4 6 8 9 9 7 7 9 9 7 6 2 2 3 4 6 8 8 8 8 10 9 8 9 10 12 13 14 14 13 13 12 11 9 9 8 7 7 7 6 6 6 7 7 6 5 6 4 2 3 5 4
7 6 7 6 6 7 7 8 8 9 8 8 9 9 10 10 11 11 12 12 11 9 8 6 6 7 6 5 6 8 8 5 2 3 5 7 9 11 8 6 7 8 7 4 2 2 3 4 5 6 7 6 7 8 8 7 7 9 9 10 11 11 11 11 10 9 7 7 7 7 7 7 7 7 8 8 8 7 6 6 5 3 1 3 4
8 7 7 7 7 8 8 8 9 9 9 10 11 11 11 10 9 9 11 11 10 9 9 8 9 9 8 7 8 9 9 7 4 1 3 5 7 10 9 6 3 4 4 2 3 3 4 4 4 4 5 5 5 5 6 6 6 7 7 7 8 8 8 8 9 8 7 7 8 8 8 7 7 7 7 7 7 7 7 6 5 4 3 3 4
8 8 8 7 8 9 10 10 10 10 11 12 12 12 10 9 9 10 11 11 10 9 9 9 9 10 10 10 10 10 11 9 6 3 1 3 4 7 8 6 2 1 1 3 3 3 4 4 3 4 5 4 5 5 5 5 5 5 6 6 7 7 7 7 7 8 8 8 8 9 8 7 6 6 5 6 6 7 8 8 6 5 4 3 3
9 8 8 8 9 9 9 10 10 11 12 13 12 12 11 10 10 10 10 10 10 10 10 9 10 11 12 13 12 12 12 12 8 5 3 0 2 3 5 5 2 1 1 2 2 3 4 5 5 6 7 6 6 6 5 4 3 5 6 6 6 7 7 7 7 7 7 7 7 8 8 7 5 4 3 4 4 5 7 8 7 6 5 4 5
9 9 8 9 9 8 8 9 11 12 14 14 13 13 12 12 11 10 10 10 10 10 10 11 12 13 14 15 14 13 14 13 11 8 5 3 1 1 2 2 1 1 1 4 4 5 6 7 8 9 9 8 7 6 4 3 2 4 5 5 5 6 6 7 7 7 7 6 6 6 6 6 5 4 3 2 3 4 5 7 7 6 5 5 6
9 8 7 8 9 8 7 9 11 13 13 13 12 12 11 11 11 10 10 11 11 12 12 12 13 15 16 18 17 16 15 15 13 10 7 6 4 3 2 2 1 2 5 6 6 7 8 9 9 10 9 9 8 6 4 2 1 3 4 5 5 5 5 6 6 7 6 6 4 3 3 4 4 4 3 2 2 2 3 5 8 7 6 6 7
9 8 7 8 9 9 8 8 10 12 12 12 11 11 11 11 11 11 11 11 12 14 15 15 15 15 16 17 17 17 16 16 14 12 10 8 7 5 5 5 5 5 5 6 6 7 8 9 10 10 10 9 8 5 4 3 1 1 3 4 4 4 4 5 5 6 5 5 3 1 1 3 3 3 3 3 2 2 1 2 5 7 7 8 10
9 9 8 7 9 10 10 10 10 10 11 12 12 13 13 13 13 13 11 9 10 12 13 13 13 11 10 10 10 13 16 16 15 13 11 10 8 6 6 7 6 5 5 5 5 7 8 9 10 10 8 5 3 3 5 5 2 1 2 3 4 4 4 3 3 4 4 4 2 1 0 2 3 3 3 3 3 2 0 1 2 5 8 10 11
8 9 9 9 9 10 10 11 12 11 11 12 13 13 14 15 16 16 13 9 8 8 7 7 8 7 5 4 6 10 14 15 15 13 11 10 8 7 6 6 6 5 5 5 6 7 8 10 10 9 5 2 2 3 6 7 5 3 2 3 3 4 4 3 3 4 4 3 2 1 1 1 2 2 2 3 3 1 1 1 3 6 9 12 11
7 9 9 9 9 8 8 10 12 12 12 14 13 11 11 12 14 16 13 9 8 7 5 5 5 3 2 2 4 8 10 12 13 13 12 11 9 7 7 6 6 7 7 7 7 8 10 10 10 8 3 5 4 2 3 6 7 5 1 2 2 3 4 3 2 3 3 3 2 1 1 0 1 1 2 2 2 1 0 2 3 4 7 9 9
4 7 7 6 6 6 6 8 10 10 11 13 13 11 9 9 10 13 12 9 7 6 5 4 3 2 2 2 2 3 5 7 10 12 12 10 9 7 6 6 6 7 8 8 9 9 10 10 9 6 4 7 5 1 1 3 6 6 2 2 2 3 4 3 2 2 3 2 1 1 1 1 2 3 3 1 2 3 3 2 3 4 6 7 7
5 6 6 4 4 4 3 4 6 8 8 10 10 9 9 10 11 12 12 10 9 8 6 5 3 3 3 4 3 2 1 4 8 11 10 8 8 7 6 6 6 8 9 9 10 10 10 10 8 5 6 9 6 3 2 2 5 5 3 3 3 3 3 3 2 2 2 2 2 1 1 2 3 3 2 1 1 4 4 3 3 5 6 7 6
4 4 4 4 3 3 3 3 5 6 6 8 9 8 8 9 9 9 10 10 9 9 8 7 5 5 5 5 4 3 1 4 7 8 8 8 8 7 7 7 7 8 9 9 10 10 9 9 8 6 8 10 6 4 4 4 4 4 4 4 4 4 4 3 3 3 3 2 3 3 2 2 3 3 2 1 0 3 5 4 4 5 5 5 5
4 3 3 3 3 2 2 2 4 4 4 5 5 4 5 5 5 6 7 8 8 8 8 8 8 8 7 7 5 4 4 4 6 7 7 8 7 8 8 9 9 9 10 10 10 10 10 11 10 7 9 11 8 5 5 6 5 5 5 5 5 6 5 4 4 5 4 3 3 3 3 2 2 3 3 1 1 3 6 6 6 6 5 5 4
4 4 5 4 3 2 2 2 3 4 4 4 3 3 3 3 3 4 5 6 7 7 7 7 8 9 9 9 8 7 6 6 6 7 8 8 9 9 10 11 12 12 12 12 12 12 12 13 13 10 10 12 12 9 7 7 7 7 7 6 7 7 6 4 5 5 5 4 4 4 4 3 2 2 2 1 1 3 5 6 7 6 5 5 4
5 6 6 6 5 4 4 4 3 3 3 2 2 2 3 3 3 4 4 5 6 6 6 6 7 8 10 10 10 10 9 8 8 8 9 10 10 11 12 13 13 13 14 14 14 14 13 13 14 13 12 14 15 12 9 8 8 8 9 9 8 8 6 4 4 5 6 5 4 4 4 3 3 3 3 3 2 3 4 6 7 6 6 5 5
8 7 7 7 5 5 5 4 4 3 3 2 1 0 1 1 2 3 3 4 5 6 6 7 8 9 10 10 11 11 11 11 11 11 12 13 13 14 15 15 14 14 14 14 14 14 13 12 12 14 14 15 16 14 11 9 9 9 10 11 11 9 7 4 3 4 6 6 5 5 4 4 4 4 4 3 4 4 5 6 7 7 6 6 6
4 5 6 6 4 4 3 2 2 2 2 2 2 1 0 0 1 2 3 4 5 6 6 7 8 9 9 9 10 11 12 13 14 15 15 15 16 16 16 16 16 16 16 14 14 15 15 13 12 14 14 15 17 15 11 9 10 10 11 12 12 10 8 5 4 5 7 7 5 5 5 4 4 4 4 3 4 5 6 7 8 8 7 7 7
2 3 2 2 2 2 1 1 1 2 2 1 1 1 1 1 1 1 2 2 4 5 6 6 8 8 9 8 8 10 12 15 17 18 18 18 18 18 17 18 18 18 18 16 15 16 16 15 15 15 15 15 16 15 10 9 10 10 10 12 13 12 10 8 5 5 7 8 6 4 5 6 5 4 4 4 4 5 6 7 9 9 8 8 8
2 2 1 2 3 4 4 4 4 3 2 2 3 3 2 2 1 2 2 2 2 3 4 4 5 6 6 7 8 9 11 13 15 16 16 16 17 17 17 18 19 19 19 19 18 18 18 17 16 16 15 15 15 14 10 9 10 10 10 11 12 14 14 11 7 6 7 8 7 5 5 7 6 5 5 5 6 7 7 7 8 9 8 7 7
9 9 9 9 10 9 8 7 6 7 8 9 9 9 7 5 3 3 4 4 5 6 6 5 5 4 5 5 6 8 9 11 12 13 14 14 15 16 17 18 18 19 20 20 19 19 19 17 17 16 15 14 14 13 10 8 8 11 12 11 12 15 16 13 8 7 8 9 8 6 5 6 7 7 7 7 7 7 7 7 7 7 7 6 6
11 12 13 12 11 10 10 9 9 11 14 15 16 16 16 15 14 13 13 13 14 14 15 13 10 7 6 6 7 8 9 10 11 12 13 14 14 16 17 18 20 21 22 22 21 20 19 17 17 17 16 14 14 14 12 9 8 9 11 11 11 14 17 16 11 8 9 9 9 7 6 6 8 9 9 8 7 7 7 6 6 7 7 6 6
12 12 12 12 12 12 13 13 13 15 16 17 17 18 18 19 19 19 19 20 20 21 21 21 18 15 11 9 9 8 9 10 11 13 14 14 15 15 16 18 19 19 19 20 20 20 19 19 18 17 15 14 13 13 12 11 9 8 10 11 11 12 16 17 13 10 9 9 9 8 7 7 8 9 9 9 7 7 7 7 7 7 7 7 7
11 12 12 13 14 14 14 15 15 16 17 18 18 19 18 19 19 19 19 20 21 21 21 21 20 20 18 17 16 16 15 14 14 14 13 12 13 14 14 15 16 15 15 16 17 16 18 20 19 16 13 12 13 13 12 12 11 10 10 11 12 11 14 16 15 11 9 9 8 7 7 8 9 9 9 10 9 9 8 8 9 9 9 10 10
11 11 12 13 14 15 14 14 15 15 16 18 18 19 19 19 19 19 19 19 19 20 20 19 19 19 19 18 19 19 19 19 19 19 18 16 16 17 16 15 14 14 14 15 14 14 15 19 20 16 12 11 11 13 14 13 12 10 10 11 12 12 13 14 14 12 10 10 10 9 8 9 9 9 9 9 10 10 10 10 10 11 11 12 13
10 11 12 13 14 15 14 14 14 15 16 17 18 18 19 19 19 19 19 18 18 19 19 19 19 18 18 18 18 18 18 18 17 17 17 17 17 17 17 16 15 16 15 13 12 12 13 18 21 17 13 10 8 10 13 15 13 10 10 11 11 11 10 11 12 14 13 11 11 10 10 9 9 9 10 9 9 10 12 11 11 12 12 12 13
11 11 12 13 14 14 13 13 14 16 16 17 17 17 18 18 18 18 18 18 18 19 20 20 20 19 19 18 18 18 17 17 16 16 16 17 16 16 17 18 18 18 18 16 13 10 10 16 20 17 15 12 8 5 8 13 15 12 10 11 12 11 11 11 13 15 15 13 12 12 11 10 9 8 9 10 10 11 12 12 13 13 13 12 12
11 12 12 13 13 13 13 13 14 15 15 16 16 16 17 17 18 18 17 18 18 19 19 20 20 20 19 19 19 18 17 17 17 17 17 17 17 16 16 17 18 19 20 18 15 11 7 11 17 17 16 14 9 5 5 9 13 14 12 10 11 12 12 11 13 16 16 14 13 13 13 11 10 9 9 10 11 12 13 14 14 14 13 14 13
12 12 13 13 13 13 13 13 13 13 13 14 14 15 15 16 17 16 16 17 18 18 18 18 19 19 19 20 20 19 19 19 19 19 19 19 19 18 16 16 17 18 19 20 18 15 10 7 11 16 16 14 12 9 8 8 8 12 14 13 11 11 11 11 12 14 16 15 14 15 15 15 14 12 11 11 12 13 14 14 13 12 12 13 15
13 14 14 14 14 14 13 13 12 12 12 13 13 14 14 15 15 15 15 16 17 17 17 18 18 18 18 19 19 19 20 20 20 19 19 20 20 19 18 17 16 17 18 20 20 17 15 11 6 9 13 15 15 15 14 10 5 5 11 14 13 11 11 11 11 13 15 15 14 14 17 19 19 17 15 14 14 14 14 14 14 13 12 12 14
15 15 15 15 14 13 13 13 13 12 12 13 13 13 13 13 14 14 14 16 16 16 16 16 16 16 16 16 17 17 18 19 19 19 19 19 19 20 19 18 17 16 17 19 19 18 17 16 13 8 7 10 13 15 17 15 10 7 6 11 14 14 12 12 13 13 14 13 12 12 13 16 19 21 21 18 17 16 16 14 14 14 14 13 14
Wind_Direction
181 191 193 183 167 156 154 153 144 145 159 173 176 169 157 147 139 139 141 132 127 128 127 127 126 120 113 100 83 71 61 65 69 64 61 55 52 57 53 47 50 53 48 42 42 45 44 40 36 34 32 30 34 41 45 45 47 49 45 40 40 35 32 40 50 35 32 29 18 10 7 7 16 25 26 24 26 25 30 36 30 26 23 15 6
181 186 172 164 160 150 153 159 153 152 162 168 169 159 145 137 133 136 138 134 130 126 127 129 125 118 108 90 76 67 59 65 73 71 65 59 59 62 56 54 59 60 53 51 53 50 42 36 30 26 30 35 38 40 40 40 43 46 46 42 40 37 32 29 26 19 17 18 15 7 358 355 359 7 13 14 13 12 12 13 351 339 328 323 327
163 165 161 159 156 149 156 161 162 167 166 161 160 156 150 140 129 126 128 131 132 131 132 130 122 113 99 82 73 62 50 57 77 81 74 68 67 67 65 66 64 57 56 61 62 53 44 42 37 30 32 38 40 37 36 36 39 42 44 42 41 40 40 34 26 19 10 8 10 9 6 2 1 5 8 11 12 1 344 329 308 308 308 297 293
149 154 159 161 158 156 162 161 161 166 160 154 155 154 152 145 133 128 127 130 135 137 136 129 120 110 94 82 68 49 40 52 90 101 89 81 78 71 69 75 71 59 61 67 67 55 46 43 42 40 41 41 38 32 30 30 32 35 37 37 38 40 43 46 41 34 24 10 5 8 9 8 10 9 6 11 25 21 10 0 327 308 307 303 293
146 150 154 159 158 158 164 161 162 165 156 150 152 149 147 144 138 135 136 137 140 141 136 127 118 106 92 79 58 43 46 64 96 114 107 94 84 66 66 80 77 66 64 68 64 53 48 48 49 46 43 40 35 28 23 21 20 20 21 23 26 28 35 47 48 42 40 23 2 5 11 10 10 11 10 13 28 34 38 46 29 354 327 314 305
148 147 152 161 161 162 164 160 163 166 154 146 148 148 149 148 142 136 137 142 143 140 133 125 115 103 90 70 49 44 56 73 98 116 111 88 66 57 72 89 83 75 73 74 65 57 57 59 58 52 45 39 32 24 17 14 11 7 2 1 2 4 14 31 38 35 35 29 9 7 13 12 9 12 16 20 31 31 32 42 38 21 4 350 344
157 151 156 164 162 161 162 159 160 160 154 149 149 149 150 152 149 139 137 143 144 137 130 122 112 102 88 67 50 46 57 79 101 116 109 70 50 63 96 97 94 96 88 76 68 67 66 59 59 59 49 37 29 22 12 7 5 358 351 349 349 354 3 14 24 25 21 15 10 7 8 9 8 8 10 15 28 30 26 21 13 10 8 1 360
163 155 157 161 158 157 159 164 162 156 157 157 153 152 153 155 157 150 142 145 143 135 128 121 114 104 88 68 54 48 54 76 97 110 106 61 48 76 116 104 105 112 89 70 66 70 70 61 58 56 44 31 23 15 6 1 358 353 353 356 358 2 7 9 14 17 10 3 2 0 358 2 5 359 358 4 9 11 15 10 358 358 0 358 4
160 157 153 151 152 152 156 164 164 158 161 163 156 155 155 149 148 149 148 147 142 135 130 126 120 108 91 74 59 53 53 64 85 100 95 51 43 77 126 119 117 115 84 68 66 70 73 66 54 42 30 22 17 10 3 1 357 353 358 4 8 14 15 12 11 10 2 354 351 350 349 355 4 357 349 352 352 347 352 357 356 354 352 353 10
155 154 145 138 143 150 155 164 169 165 164 165 160 156 152 142 134 137 144 145 142 140 136 128 118 107 96 82 67 60 57 58 72 94 88 30 23 51 125 138 128 109 80 73 73 70 64 48 32 26 19 13 11 11 10 7 2 2 8 10 10 14 14 12 8 1 357 352 345 344 342 343 354 353 337 333 334 334 339 348 349 349 349 353 9
147 145 139 135 142 154 167 175 178 173 166 165 164 158 151 145 135 134 142 146 145 144 139 128 119 113 109 95 73 66 62 57 60 79 89 2 5 25 118 153 139 101 73 68 71 72 58 33 21 20 15 11 12 15 16 13 8 10 16 20 23 25 23 20 15 4 356 351 345 345 338 328 336 342 331 325 328 331 336 339 338 343 350 351 347
140 139 136 143 147 152 168 176 177 176 171 166 164 159 155 151 142 136 141 147 149 146 141 136 135 132 124 107 83 73 66 57 49 39 303 342 5 22 108 153 144 111 77 62 65 74 55 32 26 21 14 12 15 16 18 21 23 22 23 27 33 34 32 27 21 14 4 350 340 338 334 323 323 327 325 322 323 323 324 328 329 332 338 336 319
141 141 132 140 141 136 157 170 171 173 172 166 162 160 159 158 151 139 138 147 153 152 148 145 148 147 135 115 95 81 69 54 42 30 358 335 7 31 95 139 142 118 79 66 68 67 42 28 26 19 13 15 20 22 25 28 31 34 35 33 30 28 25 19 9 2 358 349 334 326 328 324 315 315 316 311 308 309 315 323 325 323 325 325 319
137 131 111 112 126 131 157 171 171 170 166 164 164 163 164 165 160 147 136 148 156 154 150 150 152 153 145 123 103 87 69 52 36 26 20 359 13 57 93 128 154 145 96 76 70 57 36 29 26 18 14 24 28 27 28 25 24 34 42 37 27 24 24 19 5 355 349 342 326 317 321 321 313 312 312 301 296 298 306 317 323 322 322 322 320
132 117 98 99 131 155 160 162 167 170 165 163 165 169 171 172 168 153 130 146 159 155 148 151 151 153 153 137 121 101 67 47 31 22 20 18 75 82 89 99 119 151 137 88 65 52 39 32 28 20 21 34 35 29 26 23 27 38 42 38 32 30 30 26 16 5 352 339 327 320 323 323 313 311 311 299 290 287 292 306 314 314 316 320 327
132 124 119 111 126 153 160 158 163 170 172 169 168 170 173 175 173 157 133 146 161 157 145 150 154 155 161 162 148 119 64 36 27 21 21 24 123 113 86 77 79 110 135 98 69 62 48 35 28 24 27 36 35 27 24 24 32 39 36 32 33 32 33 33 25 18 8 353 339 331 331 327 314 312 314 303 287 279 285 301 306 308 318 328 346
128 134 147 125 121 144 157 161 164 171 177 175 167 164 167 171 171 162 146 152 160 156 150 155 159 158 163 169 161 121 53 21 25 27 26 26 26 109 92 71 66 81 111 106 75 62 47 31 26 26 33 39 30 21 22 25 29 31 26 26 32 33 32 33 29 26 22 1 344 344 349 347 330 325 329 323 305 281 283 308 319 323 331 336 350
121 135 146 144 138 144 153 157 160 166 171 169 164 160 160 162 163 161 161 162 161 160 157 154 154 153 155 161 162 219 293 318 46 38 37 33 23 50 79 72 63 70 106 125 90 63 47 26 21 27 37 40 29 17 18 23 29 27 17 16 25 29 26 23 21 20 18 13 12 13 17 16 0 354 5 6 6 335 271 311 329 328 335 313 295
127 131 136 139 139 144 153 155 155 159 162 163 164 160 157 158 155 150 157 162 162 164 163 152 147 151 163 175 202 251 249 206 93 53 46 41 34 40 62 78 68 69 107 132 103 54 46 27 21 29 37 38 32 24 20 22 30 29 17 10 14 19 20 19 17 17 22 35 36 32 37 40 31 31 40 40 44 52 31 10 355 341 45 47 1
134 135 134 138 142 148 155 154 154 158 161 163 163 160 159 161 157 155 160 164 165 167 169 165 163 171 192 215 233 242 237 213 126 81 59 45 40 42 57 80 78 77 106 126 101 18 21 21 22 29 31 32 35 34 27 24 26 29 24 15 9 8 13 18 21 26 41 53 50 48 57 59 53 50 51 50 53 54 49 43 29 21 81 77 69
141 143 143 148 156 162 162 157 156 159 160 161 162 162 161 161 161 166 172 175 176 178 185 195 197 195 207 232 245 243 235 224 181 102 72 50 41 44 53 73 82 89 105 107 54 351 356 6 15 19 19 25 35 33 29 26 22 25 31 28 18 10 11 16 24 35 50 56 58 63 68 66 58 55 54 54 56 52 43 35 20 357 46 76 73
151 150 148 152 161 167 170 167 162 161 162 162 159 158 160 166 174 183 185 183 183 188 196 205 208 208 217 233 248 249 239 229 217 148 81 57 42 44 51 60 78 95 92 39 358 347 348 359 6 355 351 8 18 11 15 22 21 21 28 31 27 22 17 20 29 39 47 55 61 63 65 67 61 53 51 55 58 50 38 30 22 14 26 52 60
159 158 154 153 157 163 171 175 172 167 167 166 163 163 170 176 181 186 189 188 189 195 202 212 218 221 226 238 251 253 242 233 225 211 121 64 45 40 47 56 73 98 43 353 357 0 344 341 342 322 318 340 345 329 335 359 14 20 24 27 26 23 24 31 39 45 52 58 61 60 60 62 60 55 56 60 58 50 45 41 38 38 43 53 62
162 165 164 163 165 166 171 178 180 177 174 173 174 178 185 187 185 188 196 200 202 206 211 218 226 232 239 247 256 255 243 234 227 220 216 113 54 36 42 58 87 111 13 331 343 349 336 328 327 320 317 322 323 312 308 323 358 18 23 26 22 18 27 39 44 47 53 56 57 57 57 55 51 55 65 70 61 49 44 44 47 58 69 72 67
166 172 174 173 173 174 179 184 187 185 182 184 188 190 192 196 198 201 205 208 211 216 222 227 233 240 247 251 256 255 242 231 225 221 222 221 234 345 17 51 89 103 299 299 304 312 315 311 308 312 315 318 318 310 297 297 353 22 22 18 14 19 31 39 39 37 43 50 54 55 55 53 49 46 50 67 67 54 43 40 43 57 81 82 70
173 179 181 179 179 185 193 191 191 191 191 196 202 203 203 206 207 208 211 216 223 228 234 239 244 251 257 258 257 253 239 227 222 221 220 222 232 253 263 256 253 263 273 280 282 282 288 292 298 309 317 319 316 305 277 255 5 30 23 9 6 23 35 34 30 29 32 42 50 49 49 57 63 65 70 76 76 76 71 50 41 47 70 86 79
181 184 187 185 186 196 207 205 199 199 201 207 214 219 222 222 220 219 221 227 237 245 249 250 252 258 267 269 263 250 236 226 219 218 220 223 229 239 241 237 239 249 261 270 271 271 277 285 298 312 314 311 308 287 238 220 248 23 32 13 358 7 28 35 34 31 26 29 39 43 47 60 71 77 79 81 73 66 92 63 39 42 61 79 76
193 196 199 196 194 201 211 217 213 208 208 214 221 229 234 235 233 231 232 241 255 259 256 249 245 252 272 284 268 241 228 223 220 220 225 226 228 236 235 230 233 245 262 270 266 270 282 290 303 317 316 305 295 245 218 214 213 151 57 34 13 6 14 28 43 42 30 22 29 51 103 70 66 60 62 74 72 43 297 179 86 65 71 77 73
200 205 208 211 215 219 224 225 222 218 215 218 227 237 239 239 241 240 237 240 246 247 241 234 233 238 261 286 260 231 227 229 227 224 226 229 237 251 247 234 229 233 245 256 256 268 288 299 313 329 324 248 197 207 213 205 184 162 87 47 36 19 10 6 22 35 30 20 20 1 239 84 61 39 36 59 66 45 310 105 107 94 83 79 73
209 211 209 215 227 235 239 234 227 225 224 220 222 229 232 235 240 236 228 222 222 224 229 231 225 217 225 263 247 235 242 247 236 222 217 225 243 261 253 238 228 224 230 244 255 275 297 307 318 328 293 205 184 181 213 205 190 181 145 39 22 15 14 1 346 4 14 25 31 324 253 195 49 312 317 24 60 125 154 70 91 106 95 87 84
181 196 200 208 219 225 238 236 225 223 226 220 215 216 217 217 218 215 213 217 223 227 232 233 224 226 275 305 289 258 255 246 227 215 213 226 249 259 244 228 220 218 226 242 259 280 298 306 313 314 253 211 203 206 263 215 199 194 201 327 329 355 9 352 316 328 350 8 23 309 252 241 263 278 292 353 82 149 154 99 90 108 107 103 104
136 155 167 177 191 194 200 209 204 208 220 219 215 216 217 212 209 211 219 231 235 232 235 241 243 258 282 302 320 319 258 212 211 215 220 233 251 249 227 215 216 221 231 248 265 280 296 308 314 295 234 219 219 221 237 222 200 202 241 298 308 328 345 332 297 281 292 306 316 311 274 251 253 259 280 13 109 160 168 143 116 120 115 107 105
121 146 165 170 172 173 166 170 188 203 217 217 216 220 220 216 218 223 230 236 240 242 248 255 259 263 267 275 293 306 258 203 211 222 227 235 244 239 223 217 223 233 244 258 272 284 296 308 312 280 230 226 230 217 212 215 212 227 263 294 305 307 311 306 286 266 261 275 289 298 302 274 249 244 263 325 111 180 185 171 148 141 128 114 106
107 120 148 161 169 188 193 177 177 186 198 204 208 218 218 216 223 230 230 231 237 246 255 261 262 262 260 259 264 267 247 220 216 222 224 227 232 233 228 228 234 244 254 263 275 286 291 297 300 278 237 235 241 230 214 218 232 254 269 282 290 291 289 288 282 274 270 279 282 283 292 294 261 244 252 274 179 187 192 185 173 166 149 129 115
134 133 133 131 130 147 175 166 162 167 176 185 196 212 217 219 235 248 243 238 243 255 265 267 262 259 258 256 252 249 246 237 228 227 228 230 233 234 234 235 241 247 253 260 268 274 278 282 286 278 254 243 242 238 230 231 244 261 267 268 274 274 270 279 285 273 270 279 279 269 270 273 261 250 247 227 166 176 186 184 181 178 162 135 113
122 134 128 116 106 111 127 135 134 135 144 159 191 225 237 245 262 272 264 255 258 267 274 272 265 260 257 254 247 242 242 241 236 235 236 238 241 243 244 245 250 254 257 261 266 270 274 276 275 272 262 248 240 237 239 239 246 259 262 261 263 259 254 271 289 271 265 272 270 260 259 256 246 246 245 224 194 177 181 188 190 187 174 149 125
103 116 120 117 111 109 112 114 109 99 88 84 92 147 216 250 284 291 282 275 278 281 278 274 271 266 261 255 248 243 244 243 241 242 244 245 247 250 253 256 261 266 269 269 270 272 278 280 274 268 262 249 237 235 240 244 246 253 257 256 255 251 248 260 282 269 259 261 263 264 263 250 236 240 241 219 199 184 182 189 193 190 182 162 140
109 120 124 126 127 123 117 105 87 79 72 67 71 80 87 300 301 297 292 290 290 286 281 277 276 276 277 272 260 250 247 246 245 246 249 251 252 254 258 262 266 270 273 276 275 273 275 279 274 265 259 247 235 232 240 249 246 247 254 254 250 244 241 247 264 262 252 249 254 262 257 239 229 233 230 211 201 196 193 194 192 188 183 176 168
256 228 204 188 180 181 208 251 68 89 94 68 43 24 353 352 354 330 317 310 302 299 298 292 287 288 288 283 271 257 249 248 250 253 256 261 263 264 265 267 268 269 270 270 271 271 271 274 273 265 255 242 232 230 241 252 244 239 251 256 249 240 236 240 249 252 244 241 244 253 247 240 238 231 215 207 212 215 211 206 203 199 195 193 189
105 189 192 140 135 136 124 101 86 76 57 32 12 354 337 328 331 335 340 340 333 337 338 325 316 316 309 294 284 271 261 261 263 263 265 271 276 280 281 279 277 277 274 270 267 268 269 272 273 265 253 241 233 231 241 250 239 233 246 258 251 241 236 237 244 247 240 236 238 237 233 234 236 226 213 216 227 231 225 216 212 211 208 203 201
96 109 109 106 108 107 100 89 74 63 63 65 61 54 49 43 27 5 1 4 5 9 14 9 359 2 359 338 316 298 286 284 284 279 277 278 280 284 290 293 294 293 289 282 274 268 266 269 270 263 252 244 238 233 238 247 239 234 244 257 255 243 235 233 236 238 232 232 236 237 232 232 232 230 229 231 232 234 233 225 220 221 218 210 208
96 100 102 101 96 87 81 78 76 76 75 74 71 69 67 67 66 63 59 56 51 47 44 37 26 16 4 345 331 317 305 300 298 294 293 293 290 289 293 299 301 302 302 299 289 274 264 264 264 259 252 248 242 234 233 240 242 238 246 260 261 244 233 229 228 227 227 229 235 239 243 240 234 234 241 244 239 238 240 236 232 236 234 223 216
96 96 97 96 91 85 82 83 84 82 78 74 73 73 71 69 68 67 64 61 58 56 54 50 46 44 37 22 9 358 341 327 319 313 309 307 307 307 307 306 305 305 307 309 302 284 267 258 255 253 253 254 249 241 240 246 246 238 244 260 264 246 231 227 222 216 216 221 226 233 243 243 234 234 244 250 247 243 248 247 241 243 244 237 230
97 96 95 94 91 89 87 84 81 78 77 77 76 75 72 69 67 63 60 58 56 56 55 52 50 51 49 46 46 43 36 28 21 13 1 347 339 340 341 335 327 323 318 314 308 292 269 251 240 239 249 254 250 246 247 250 245 234 239 255 259 240 225 223 221 213 205 203 204 212 228 236 234 234 244 253 254 251 251 251 248 248 250 245 237
102 100 98 95 92 89 86 81 77 77 79 79 77 74 71 68 65 60 58 56 55 54 51 47 44 44 44 43 44 44 42 41 41 40 37 30 21 18 17 11 1 354 339 320 307 293 269 243 228 229 246 254 249 247 248 246 241 236 241 254 255 239 228 229 228 218 202 189 187 191 205 219 228 235 241 249 257 257 255 255 257 257 256 250 242
109 106 101 98 95 90 85 80 78 80 81 78 75 73 69 65 61 58 56 55 52 48 44 40 39 40 41 40 38 37 36 36 36 36 35 33 28 26 26 24 19 15 5 346 324 305 271 238 226 233 248 252 251 254 248 240 239 241 243 247 250 248 249 251 239 222 207 195 186 186 195 209 222 232 234 237 248 257 257 259 262 264 263 258 251
116 112 108 104 98 92 87 83 81 83 82 77 74 72 67 62 61 61 59 56 51 45 42 41 41 43 43 40 37 34 32 30 30 30 28 26 23 22 24 25 24 20 17 9 355 330 276 237 229 237 247 247 252 272 255 239 239 246 249 245 244 248 261 264 246 227 217 209 197 190 192 199 208 218 228 232 239 250 259 264 266 266 265 260 250
119 115 111 108 101 94 90 85 82 83 81 75 72 72 67 62 62 65 63 58 52 47 46 45 44 43 43 39 36 34 33 31 31 30 25 21 19 17 17 22 23 22 20 17 11 357 306 247 235 236 241 243 250 283 290 256 244 245 250 253 250 249 258 265 252 232 222 217 210 205 204 205 205 210 223 234 239 247 258 265 265 262 257 250 240
118 116 113 109 102 95 90 86 84 84 80 73 70 72 69 64 63 65 62 56 51 49 49 48 45 43 42 39 36 36 36 34 33 31 26 20 19 17 15 17 20 22 22 20 16 11 357 306 254 242 243 247 251 262 278 279 258 246 248 253 255 253 253 257 250 231 220 218 221 222 222 222 220 220 225 233 242 251 255 253 248 244 244 241 234
117 116 112 106 101 96 91 88 86 85 80 74 73 75 73 67 66 63 56 49 46 47 49 49 46 44 42 39 36 36 35 33 32 30 24 19 17 16 14 14 16 21 25 24 20 18 15 5 323 262 252 254 256 257 262 272 289 274 252 248 251 255 250 245 238 224 214 215 224 230 232 234 233 233 234 237 241 244 242 236 231 232 239 243 240
115 113 107 102 99 96 92 90 89 87 81 77 79 82 79 74 69 61 51 47 47 49 49 46 41 40 39 37 35 35 34 32 31 29 23 18 15 15 14 12 11 16 22 24 21 20 20 18 12 351 295 267 261 261 261 264 277 298 275 249 247 250 248 243 238 231 225 227 233 236 237 238 239 240 241 241 238 235 233 234 238 243 247 251 252
Height
788 788 789 790 791 791 792 792 793 793 793 793 794 793 794 794 794 795 796 797 797 797 797 797 798 798 798 799 799 798 798 797 797 797 796 796 795 796 796 795 795 794 794 793 792 792 792 791 791 790 789 788 787 786 785 785 784 783 782 781 780 780 779 778 779 779 779 778 777 775 774 773 772 771 770 769 768 768 767 767 767 766 767 767 767
788 788 789 790 791 791 792 793 793 794 794 794 794 794 795 795 796 796 797 798 798 797 798 798 799 799 799 799 799 799 799 798 798 798 797 796 796 796 797 796 796 795 795 794 794 793 793 792 792 791 790 789 788 787 786 785 785 784 783 783 782 781 780 780 779 779 779 778 777 776 775 773 772 771 771 770 769 769 768 767 766 766 766 766 767
788 789 789 790 791 792 792 793 793 794 794 794 795 795 796 797 797 797 798 798 799 798 799 799 800 800 800 800 800 799 799 799 799 798 798 797 797 798 798 797 797 797 796 795 795 794 794 793 793 793 792 791 789 789 787 786 786 785 785 785 784 783 782 781 781 780 779 778 777 776 775 774 773 772 771 770 769 768 767 766 766 766 766 766 766
788 789 790 791 791 792 792 793 794 794 795 795 795 796 797 797 798 798 799 799 799 799 800 800 800 800 800 800 800 800 800 799 799 799 798 798 798 798 798 798 798 797 797 796 796 795 795 794 794 794 793 792 791 790 788 787 786 786 786 785 784 784 783 782 782 781 780 778 777 777 776 775 774 773 771 770 769 768 767 766 765 765 765 765 764
788 789 790 791 791 792 793 793 794 794 795 795 796 796 797 798 798 799 799 800 799 799 800 800 801 801 801 801 801 800 800 799 799 799 799 799 799 799 799 799 798 798 797 797 797 796 795 795 795 794 793 792 791 790 789 787 786 785 785 784 784 783 783 782 781 780 779 779 778 777 776 775 774 773 772 770 769 768 767 765 764 764 764 764 763
789 789 790 791 791 792 793 793 794 794 795 795 796 797 797 798 799 799 800 800 800 800 801 801 801 801 802 802 802 801 800 800 800 800 800 800 800 800 799 799 799 799 798 798 797 796 796 796 796 795 794 793 791 790 789 787 786 785 783 783 782 782 781 781 780 779 779 778 777 776 775 774 773 772 772 771 770 769 767 765 764 764 764 763 763
789 790 790 790 791 792 792 793 794 794 795 795 796 797 798 798 799 800 800 800 800 801 801 802 802 802 803 803 803 802 801 800 800 800 801 801 800 800 800 800 800 800 799 799 798 797 797 797 796 795 794 793 792 791 789 788 787 785 784 782 781 781 780 779 779 779 778 777 776 775 774 772 772 771 771 771 770 769 767 765 764 765 764 763 763
789 789 790 790 791 792 792 793 794 794 795 795 796 797 798 798 799 799 800 800 801 801 802 802 803 803 804 804 803 803 802 801 801 801 801 802 801 800 800 800 800 800 800 799 799 798 798 797 796 795 795 794 792 791 790 788 787 786 784 783 782 781 780 779 779 778 777 777 776 774 773 772 771 770 770 770 769 768 767 766 766 765 764 764 763
789 789 790 790 791 792 793 794 794 795 795 796 796 797 798 799 799 799 800 800 801 802 802 803 803 804 804 804 804 804 803 802 802 802 802 802 802 801 801 801 801 801 800 800 799 799 798 797 796 795 794 793 793 791 790 789 787 786 785 783 782 781 780 779 779 778 777 776 775 774 773 772 771 770 770 770 770 769 768 767 766 765 765 764 763
789 789 790 790 791 792 793 794 794 795 795 796 797 797 798 799 799 800 800 801 802 802 803 804 804 804 804 805 805 804 804 803 803 803 803 802 802 801 801 801 801 801 801 800 800 799 798 797 796 795 794 793 792 791 790 789 787 786 785 784 783 782 780 780 779 778 777 776 775 774 773 772 771 771 771 771 770 770 769 767 766 765 764 763 763
788 789 789 790 791 792 792 793 794 795 795 796 797 798 799 800 800 801 801 802 803 803 803 804 804 805 805 805 805 805 804 804 804 804 803 803 802 801 801 801 801 801 801 800 800 799 797 797 796 795 794 793 792 791 790 789 787 786 785 784 783 782 780 779 778 777 777 776 775 774 773 773 772 772 772 771 770 770 769 768 767 766 765 764 763
788 789 789 790 791 791 792 793 794 795 795 796 797 798 800 800 801 802 802 802 803 803 804 804 804 805 805 805 805 805 805 805 805 804 803 803 802 801 800 801 801 801 801 800 799 798 797 797 796 795 795 794 793 791 790 789 788 786 785 784 783 782 781 780 779 777 777 776 775 774 773 773 772 771 771 771 770 770 769 768 767 766 765 765 764
789 789 789 791 791 791 793 793 794 795 795 796 797 798 800 800 801 802 802 803 803 803 804 804 804 805 805 805 806 805 806 806 805 804 803 803 802 801 800 801 801 801 801 800 799 798 797 797 796 796 795 794 793 791 790 789 788 787 786 784 783 782 781 780 779 778 777 776 775 774 773 772 771 771 771 770 770 769 768 768 767 766 766 765 764
789 789 790 791 791 792 793 793 794 795 795 797 798 798 800 800 801 802 802 802 803 803 804 804 805 805 805 805 806 806 806 806 805 804 804 803 802 801 801 801 801 801 801 800 799 798 798 798 797 796 795 794 793 792 791 790 789 787 786 785 784 783 781 780 779 778 777 776 775 774 773 772 771 770 770 770 769 769 768 767 767 766 766 765 763
789 790 790 791 791 792 793 793 795 795 796 797 798 798 800 800 801 802 802 802 803 803 804 804 805 805 806 806 806 806 806 806 805 805 804 803 802 802 801 801 801 801 801 800 799 799 798 798 797 797 796 794 793 792 791 790 789 787 786 785 784 783 781 780 779 778 777 776 775 773 772 772 771 770 770 769 769 768 767 767 766 766 765 764 763
789 790 790 791 792 792 793 794 795 796 797 797 798 798 799 800 801 802 802 803 803 804 804 804 805 805 806 806 806 806 806 806 805 805 804 803 802 802 801 801 801 801 800 800 800 799 799 799 798 797 796 795 794 793 792 791 789 788 787 785 784 783 782 781 780 778 777 776 774 773 772 771 770 769 769 768 768 767 767 766 766 765 764 764 763
790 790 791 792 792 793 793 794 795 796 797 798 798 798 799 800 801 801 802 803 803 804 804 804 805 805 805 806 806 806 806 805 805 804 804 803 802 801 801 801 800 800 800 800 800 800 800 799 798 797 796 795 794 793 792 791 790 789 787 786 784 783 781 781 780 778 777 775 774 773 772 771 770 769 769 768 767 767 767 766 766 765 764 763 763
790 791 792 792 793 793 794 795 796 796 797 797 798 798 799 800 801 801 802 802 803 804 804 804 805 805 805 806 806 806 805 805 805 804 804 803 802 801 801 800 800 800 800 800 800 800 800 799 798 798 796 795 795 794 793 792 790 789 789 787 785 783 781 781 779 778 777 775 774 773 772 771 770 769 769 768 767 767 767 766 766 765 764 763 763
791 791 792 793 793 794 795 795 796 796 797 798 798 799 799 800 801 802 802 802 803 804 804 804 805 805 805 805 805 805 805 804 805 804 804 803 802 800 800 800 800 800 800 800 801 800 800 800 799 798 797 796 795 794 793 792 791 790 789 788 786 784 783 781 780 778 777 776 775 774 773 772 771 770 770 769 768 767 767 767 766 765 764 764 763
792 792 793 793 794 794 795 796 796 797 797 798 798 799 800 801 802 802 802 803 803 804 804 804 805 805 805 805 804 804 804 804 805 804 804 803 802 800 800 800 800 800 801 801 801 801 800 800 799 798 797 796 796 795 794 793 792 791 790 788 787 786 784 783 781 779 778 776 775 775 774 773 772 771 771 770 769 769 768 767 767 766 765 764 764
792 793 794 794 794 795 795 796 797 797 798 798 799 800 800 801 802 802 803 803 803 804 804 804 804 804 804 804 804 804 804 804 804 804 803 803 802 801 800 800 800 801 801 801 801 801 800 799 799 798 797 797 796 795 794 794 793 791 790 789 788 787 786 784 783 781 779 778 777 776 775 774 774 773 772 771 770 770 769 768 767 766 765 765 764
793 794 795 795 795 795 796 796 797 797 798 799 799 800 801 801 802 802 803 803 803 804 804 804 804 804 804 804 804 804 804 804 804 803 803 802 802 801 800 800 801 801 801 801 801 800 800 800 799 798 798 797 796 795 795 794 793 792 791 790 789 787 786 785 784 782 780 779 778 777 776 775 774 774 773 772 771 771 770 769 768 767 766 765 765
793 794 795 795 796 796 796 797 797 798 799 799 800 800 801 801 802 802 802 803 803 803 804 804 804 804 804 804 803 803 803 803 803 803 802 802 802 801 800 801 801 801 801 801 800 800 800 800 799 799 798 797 796 796 795 794 793 792 791 790 789 788 786 785 784 783 782 780 779 778 777 776 775 775 774 773 773 772 771 770 769 768 767 766 766
794 795 795 796 796 797 797 797 798 798 798 799 799 800 800 801 801 802 802 802 803 803 803 803 803 803 803 803 802 802 802 802 802 802 802 802 801 800 800 801 801 801 801 800 800 800 800 800 799 799 798 797 797 796 795 794 793 792 791 790 789 788 787 786 785 784 783 782 781 779 778 777 777 776 775 774 774 773 772 771 770 769 768 767 767
794 795 796 796 797 797 797 797 798 798 798 799 799 800 800 801 801 801 801 802 802 802 802 802 802 802 801 801 800 800 800 800 801 801 801 801 801 800 800 800 800 801 800 800 800 800 800 799 799 798 797 797 796 796 795 794 793 792 791 790 789 788 788 786 785 784 783 782 781 781 780 779 778 777 776 775 774 774 773 772 771 770 769 768 767
794 795 796 797 797 798 798 798 798 799 799 799 800 800 800 800 801 801 801 801 801 801 801 801 801 800 799 798 798 798 798 798 799 800 800 800 800 800 800 800 800 800 800 800 799 799 799 799 798 797 797 796 795 795 794 794 793 792 791 791 790 789 788 787 786 785 784 783 782 781 781 780 779 778 777 776 775 774 774 773 772 771 770 769 768
794 795 796 797 797 798 798 798 798 799 799 800 800 800 800 800 801 801 801 801 801 800 800 800 799 799 798 796 796 796 796 797 798 798 799 799 799 799 799 799 799 799 799 799 799 798 798 798 797 796 796 795 794 794 793 793 793 792 792 791 790 789 788 787 786 785 785 783 782 782 781 781 780 779 778 777 776 775 774 774 773 772 771 770 769
794 795 796 797 797 797 798 798 798 799 799 800 800 800 800 800 800 800 800 800 799 799 798 798 797 797 796 795 794 794 795 796 796 797 797 797 798 798 798 798 798 798 798 798 798 798 797 797 796 796 795 794 794 793 793 793 792 792 792 791 790 789 788 787 786 786 785 784 783 782 782 781 780 780 779 778 777 776 775 774 774 773 772 771 770
794 795 796 796 797 797 797 798 798 798 798 799 799 799 799 799 798 798 799 799 798 798 797 797 797 796 795 795 794 794 794 794 795 795 796 796 797 797 796 797 797 797 797 797 797 797 797 796 795 795 794 793 793 793 792 792 792 792 792 791 790 789 788 787 786 785 785 784 784 783 782 781 781 780 780 779 778 777 776 775 775 774 773 772 771
794 795 796 796 797 797 797 797 797 797 797 797 798 798 797 797 797 797 798 798 798 797 797 796 796 796 795 794 794 793 793 793 794 795 795 796 796 796 795 796 796 796 797 797 797 797 796 795 794 794 793 793 793 792 792 792 791 792 791 791 790 789 787 787 786 785 785 784 784 783 782 782 781 780 780 779 779 778 777 776 776 775 774 773 773
794 794 795 796 796 796 796 796 796 796 797 797 797 797 797 797 797 797 797 797 797 797 796 796 795 795 794 794 793 793 793 793 793 794 795 795 795 795 795 795 795 795 796 796 796 796 795 795 794 793 793 793 792 792 792 791 791 791 791 790 790 789 787 787 785 785 785 784 783 783 782 782 781 780 780 780 779 778 778 777 777 776 775 774 774
794 794 795 796 796 796 795 795 795 796 796 796 796 797 796 796 796 796 796 796 796 796 795 795 794 794 793 793 793 792 792 792 793 794 794 795 795 794 794 794 794 795 795 795 795 795 795 794 793 792 792 792 791 791 791 790 790 790 790 789 789 788 787 787 785 784 784 783 783 783 782 781 781 780 780 780 779 778 778 778 777 777 776 776 775
794 794 795 795 795 795 795 795 795 795 795 796 796 796 796 796 795 795 795 795 795 795 794 794 793 793 792 792 792 792 791 792 792 793 793 794 794 794 794 794 794 794 794 794 794 794 793 793 792 792 791 791 790 790 790 789 789 789 789 788 788 787 787 786 785 784 783 783 782 782 782 781 781 780 780 780 779 779 778 778 778 778 777 777 776
795 795 795 795 795 795 795 795 795 795 795 795 795 795 795 795 795 794 794 794 793 793 793 792 792 791 791 791 791 791 791 791 791 792 792 792 793 793 793 793 793 793 793 793 792 792 792 791 791 791 791 790 790 789 789 788 788 788 788 787 787 786 786 786 785 785 784 783 782 782 781 781 781 780 780 780 779 779 778 778 778 778 778 777 777
795 795 795 795 795 795 795 795 795 795 795 795 795 795 795 794 794 793 793 792 792 792 791 791 790 790 790 790 790 790 791 790 791 791 791 791 792 792 792 792 792 792 792 792 791 791 790 790 789 789 789 789 788 788 788 787 787 787 787 786 786 785 785 785 784 784 784 783 782 781 781 781 780 780 780 780 779 779 779 778 779 778 778 778 777
795 796 796 796 796 795 795 795 795 795 795 795 794 794 794 793 793 793 792 791 791 790 790 790 789 789 789 789 789 790 790 790 790 790 790 790 790 791 791 790 791 790 790 790 790 789 789 788 787 787 787 787 787 787 786 786 786 786 785 785 785 784 784 784 784 783 783 783 782 781 781 780 780 780 780 780 779 779 779 779 779 779 778 778 778
796 796 796 796 796 796 796 796 795 795 795 795 794 794 793 793 792 792 791 791 790 790 789 789 788 788 788 788 788 788 789 789 789 789 789 789 789 789 789 789 789 789 789 788 788 787 787 786 785 785 785 785 785 785 785 785 784 784 784 784 783 783 783 783 783 782 783 782 782 781 781 780 780 780 780 779 779 779 779 779 779 779 779 778 778
797 797 797 797 797 796 797 796 796 796 795 794 794 794 793 792 792 791 791 790 789 789 789 788 787 787 786 786 787 787 787 787 787 787 787 787 787 787 788 788 788 788 787 786 786 785 785 784 783 783 782 782 782 783 783 783 783 783 783 783 783 783 783 782 782 782 782 782 782 781 781 780 780 779 779 779 779 779 779 779 779 779 779 779 778
797 797 797 797 797 797 797 796 796 796 795 794 794 793 792 792 791 790 790 790 789 788 788 787 786 786 785 785 785 785 785 785 785 785 786 786 786 786 786 786 786 786 785 784 784 783 782 782 781 781 780 780 780 781 782 781 781 781 781 781 782 782 782 782 782 781 781 781 781 781 780 780 780 779 779 779 779 779 779 779 779 779 779 779 779
796 797 797 797 797 797 797 796 796 796 795 794 794 792 792 791 791 790 790 789 788 788 787 786 785 785 784 784 784 784 784 783 783 784 784 785 784 785 785 784 784 783 783 782 782 781 781 780 780 779 779 779 779 780 780 780 779 780 780 780 780 780 780 781 781 780 780 780 780 780 780 780 780 779 779 779 779 779 779 779 779 779 779 779 779
797 797 797 797 797 797 796 796 796 795 794 794 793 792 791 791 790 789 789 788 788 787 786 786 785 784 784 784 783 783 783 782 782 782 783 783 783 783 783 782 782 781 780 780 779 779 779 778 778 778 777 777 778 778 778 778 778 778 778 778 778 778 779 779 780 780 779 779 779 779 779 779 779 779 779 778 778 779 779 779 779 780 780 780 780
798 798 797 797 798 797 796 796 796 795 795 794 792 792 791 790 789 789 788 788 788 787 786 785 785 784 784 784 783 782 782 781 781 782 781 781 782 781 781 781 780 779 778 777 776 776 776 776 776 776 775 775 775 776 776 776 776 776 776 776 776 777 777 778 779 779 778 778 778 778 778 779 779 779 779 779 779 779 779 779 779 780 780 780 780
799 798 798 798 798 797 797 797 796 795 795 794 793 793 792 791 790 790 789 788 788 787 786 786 785 784 784 784 783 782 782 782 782 781 781 781 781 780 780 779 778 777 776 775 773 773 773 774 774 774 773 773 774 774 774 775 774 774 774 775 775 775 776 776 777 778 777 777 778 778 778 778 778 778 778 779 779 779 779 779 779 779 780 780 780
799 798 798 798 798 798 798 797 797 796 795 794 794 793 792 792 791 791 790 789 789 788 788 787 786 785 785 784 783 783 782 782 781 781 780 780 780 779 778 777 776 775 774 772 771 770 770 771 771 772 772 772 772 772 773 774 773 773 773 773 773 774 774 775 775 776 776 776 777 777 777 777 777 777 778 778 778 779 778 779 779 779 779 780 780
799 799 799 798 798 798 798 798 797 797 796 795 795 794 793 793 792 791 791 791 790 789 789 788 787 787 786 785 784 784 783 782 781 781 780 780 779 779 777 776 775 773 772 770 769 767 767 768 769 769 770 770 770 770 771 771 772 772 771 771 771 772 772 773 774 774 775 775 775 776 776 776 776 777 777 777 778 778 778 778 778 778 778 779 779
800 799 799 799 799 799 799 798 798 797 796 796 795 795 794 794 793 792 792 791 790 790 790 789 788 787 786 786 785 784 783 783 782 781 780 780 779 778 777 775 774 772 770 768 766 765 765 766 767 768 768 769 769 769 769 769 770 770 770 770 770 771 771 772 772 773 774 774 774 775 775 775 776 776 776 776 777 777 777 777 777 777 777 777 777
800 800 799 799 799 799 799 799 798 798 797 797 796 795 795 794 793 793 793 792 792 791 790 789 789 788 787 787 786 785 784 784 783 782 781 780 779 778 776 774 773 772 770 768 766 764 764 766 767 767 767 768 768 768 767 768 768 769 769 769 769 770 770 771 771 772 772 773 773 773 774 774 775 775 775 776 776 776 776 776 776 776 776 776 776
800 800 800 800 800 800 800 799 799 798 798 797 797 796 796 795 794 794 793 793 792 792 791 791 790 789 788 788 787 786 785 784 783 782 781 780 779 778 776 774 773 772 770 768 767 765 765 765 766 766 766 767 767 767 767 767 767 768 769 769 769 769 769 770 770 770 771 771 772 772 773 774 774 774 775 775 775 775 775 775 775 775 775 775 775
801 800 800 800 800 800 800 799 799 799 798 798 797 796 796 796 795 795 794 794 793 793 792 791 791 790 789 788 787 787 786 785 783 782 782 780 779 778 776 775 774 772 771 769 768 766 765 764 765 765 766 766 765 766 766 766 766 767 767 767 767 767 767 768 768 769 770 770 771 771 772 772 773 773 773 774 774 774 774 774 774 774 774 775 775
801 801 801 801 801 800 800 800 799 799 799 798 797 797 796 796 796 795 795 795 794 793 793 792 791 790 790 789 788 787 786 785 784 783 782 781 780 778 777 775 774 773 771 770 769 767 766 764 764 764 764 765 765 765 765 765 765 765 765 766 766 766 766 766 767 767 768 769 769 769 770 770 771 772 772 772 773 773 773 773 773 773 774 774 774
802 802 802 802 801 801 801 800 800 800 799 798 798 797 797 797 796 796 796 795 794 794 793 792 791 791 790 789 789 788 787 786 785 784 783 782 780 779 777 776 774 773 772 771 769 768 767 765 764 763 763 763 763 764 764 765 764 763 763 764 764 764 764 764 765 765 766 766 767 767 768 768 769 770 770 771 771 771 771 772 772 772 772 773 773